Back to catalog

FENGYUN 1C DEB

AlivePO
NORAD 30863·DEBRIS·🇨🇳 China

Launched May 10, 1999 from Taiyuan Satellite Launch Center

Loading…

Next Passes (next 24 hours)

TLE

FreshSource: Space-Track

Epoch: Sep 14, 2026, 14:28 UTC

1 30863U 99025AWZ 26257.60330699 -.00000256  00000-0 -44452-3 0  9990
2 30863  99.1488  28.9653 0866277  28.6380 347.9888 12.41226513631629

Track FENGYUN 1C DEB in real time with AllMySat

Download on the App Store